| time (UTC) | temp F | wind direction | speed MPH | gust MPH | rain 1hr in | rain 24hr in | rain mn in | humidity % | barometer mb |
| 20260504223641 | 81 | 202 | 10.0 | 21.0 | 0.00 | 0.00 | 0.00 | 58 | 1004.4 |
| 20260504222636 | 81 | 143 | 11.0 | 21.0 | 0.00 | 0.00 | 0.00 | 57 | 1004.3 |
| 20260504221635 | 81 | 178 | 9.0 | 22.0 | 0.00 | 0.00 | 0.00 | 57 | 1004.2 |
| 20260504221125 | 81 | 187 | 10.0 | 20.0 | 0.00 | 0.00 | 0.00 | 57 | 1004.3 |
| 20260504215636 | 81 | 202 | 12.0 | 30.0 | 0.00 | 0.00 | 0.00 | 57 | 1004.4 |
| 20260504214635 | 82 | 188 | 11.0 | 21.0 | 0.00 | 0.00 | 0.00 | 59 | 1004.5 |
| 20260504213636 | 81 | 173 | 11.0 | 28.0 | 0.00 | 0.00 | 0.00 | 57 | 1004.6 |
| 20260504212652 | 81 | 142 | 10.0 | 23.0 | 0.00 | 0.00 | 0.00 | 57 | 1004.7 |
| 20260504212117 | 82 | 119 | 11.0 | 25.0 | 0.00 | 0.00 | 0.00 | 57 | 1005.1 |
| 20260504210635 | 82 | 150 | 12.0 | 27.0 | 0.00 | 0.00 | 0.00 | 56 | 1005.1 |
| 20260504205636 | 82 | 123 | 12.0 | 24.0 | 0.00 | 0.00 | 0.00 | 56 | 1005.2 |
| 20260504204635 | 82 | 172 | 12.0 | 23.0 | 0.00 | 0.00 | 0.00 | 57 | 1005.4 |
| 20260504203631 | 82 | 185 | 9.0 | 20.0 | 0.00 | 0.00 | 0.00 | 56 | 1005.6 |
| 20260504202633 | 81 | 194 | 12.0 | 23.0 | 0.00 | 0.00 | 0.00 | 56 | 1005.8 |
| 20260504201631 | 81 | 187 | 10.0 | 24.0 | 0.00 | 0.00 | 0.00 | 58 | 1006.0 |
| 20260504200632 | 80 | 194 | 11.0 | 27.0 | 0.00 | 0.00 | 0.00 | 58 | 1006.3 |
| 20260504195630 | 80 | 193 | 11.0 | 22.0 | 0.00 | 0.00 | 0.00 | 58 | 1006.5 |
| 20260504195115 | 80 | 188 | 11.0 | 21.0 | 0.00 | 0.00 | 0.00 | 59 | 1006.9 |
| 20260504193629 | 80 | 159 | 11.0 | 24.0 | 0.00 | 0.00 | 0.00 | 58 | 1007.2 |
| 20260504192630 | 80 | 155 | 10.0 | 20.0 | 0.00 | 0.00 | 0.00 | 58 | 1007.2 |
| 20260504191624 | 79 | 207 | 10.0 | 24.0 | 0.00 | 0.00 | 0.00 | 58 | 1007.2 |
| 20260504190623 | 79 | 163 | 11.0 | 27.0 | 0.00 | 0.00 | 0.00 | 59 | 1007.5 |
| 20260504185623 | 78 | 184 | 13.0 | 27.0 | 0.00 | 0.00 | 0.00 | 59 | 1007.6 |
| 20260504184623 | 78 | 182 | 12.0 | 23.0 | 0.00 | 0.00 | 0.00 | 59 | 1007.8 |
| 20260504183621 | 78 | 167 | 13.0 | 23.0 | 0.00 | 0.00 | 0.00 | 59 | 1007.8 |
| 20260504182620 | 77 | 200 | 13.0 | 24.0 | 0.00 | 0.00 | 0.00 | 58 | 1008.0 |
| 20260504181619 | 77 | 177 | 12.0 | 27.0 | 0.00 | 0.00 | 0.00 | 61 | 1008.1 |
| 20260504180617 | 76 | 116 | 11.0 | 23.0 | 0.00 | 0.00 | 0.00 | 60 | 1008.5 |
| 20260504175618 | 76 | 173 | 11.0 | 20.0 | 0.00 | 0.00 | 0.00 | 61 | 1008.5 |
| 20260504174617 | 76 | 171 | 12.0 | 22.0 | 0.00 | 0.00 | 0.00 | 61 | 1008.7 |
| 20260504173619 | 75 | 217 | 12.0 | 24.0 | 0.00 | 0.00 | 0.00 | 61 | 1008.9 |
| 20260504172618 | 75 | 150 | 13.0 | 28.0 | 0.00 | 0.00 | 0.00 | 62 | 1009.0 |
| 20260504171619 | 74 | 193 | 12.0 | 23.0 | 0.00 | 0.00 | 0.00 | 62 | 1009.1 |
| 20260504170617 | 74 | 188 | 11.0 | 20.0 | 0.00 | 0.00 | 0.00 | 61 | 1009.4 |
| 20260504150619 | 69 | 215 | 13.0 | 27.0 | 0.00 | 0.00 | 0.00 | 67 | 1010.3 |
| 20260504140618 | 66 | 138 | 10.0 | 22.0 | 0.00 | 0.00 | 0.00 | 71 | 1010.5 |
| 20260504130620 | 64 | 166 | 10.0 | 19.0 | 0.00 | 0.00 | 0.00 | 75 | 1010.7 |
| 20260504110619 | 61 | 178 | 9.0 | 14.0 | 0.00 | 0.00 | 0.00 | 74 | 1010.5 |
| 20260504081615 | 63 | 197 | 9.0 | 15.0 | 0.00 | 0.00 | 0.00 | 65 | 1011.6 |
| 20260504080614 | 63 | 185 | 8.0 | 17.0 | 0.00 | 0.00 | 0.00 | 65 | 1011.6 |
| 20260504050612 | 67 | 187 | 3.0 | 7.0 | 0.00 | 0.00 | 0.00 | 58 | 1013.4 |
| 20260504045613 | 67 | 178 | 3.0 | 9.0 | 0.00 | 0.00 | 0.00 | 57 | 1013.5 |
| 20260504044613 | 68 | 167 | 4.0 | 9.0 | 0.00 | 0.00 | 0.00 | 56 | 1013.6 |
| 20260504043613 | 68 | 160 | 4.0 | 10.0 | 0.00 | 0.00 | 0.00 | 55 | 1013.7 |
| 20260504042609 | 68 | 154 | 5.0 | 11.0 | 0.00 | 0.00 | 0.00 | 55 | 1013.7 |
| 20260504042041 | 69 | 184 | 5.0 | 10.0 | 0.00 | 0.00 | 0.00 | 54 | 1013.8 |
| 20260504040606 | 69 | 162 | 5.0 | 12.0 | 0.00 | 0.00 | 0.00 | 53 | 1013.9 |
| 20260504035605 | 69 | 173 | 5.0 | 11.0 | 0.00 | 0.00 | 0.00 | 52 | 1013.9 |
| 20260504034605 | 69 | 182 | 5.0 | 12.0 | 0.00 | 0.00 | 0.00 | 52 | 1013.8 |
| 20260504033607 | 70 | 194 | 5.0 | 12.0 | 0.00 | 0.00 | 0.00 | 51 | 1013.8 |
| 20260504033055 | 70 | 162 | 6.0 | 12.0 | 0.00 | 0.00 | 0.00 | 51 | 1013.7 |
| 20260504031606 | 70 | 186 | 6.0 | 13.0 | 0.00 | 0.00 | 0.00 | 50 | 1013.6 |
| 20260504030607 | 70 | 147 | 6.0 | 13.0 | 0.00 | 0.00 | 0.00 | 50 | 1013.6 |
| 20260504025601 | 71 | 183 | 6.0 | 14.0 | 0.00 | 0.00 | 0.00 | 48 | 1013.6 |
| 20260504024601 | 71 | 175 | 5.0 | 13.0 | 0.00 | 0.00 | 0.00 | 48 | 1013.6 |
| 20260504023601 | 71 | 184 | 6.0 | 14.0 | 0.00 | 0.00 | 0.00 | 47 | 1013.5 |
| 20260504022601 | 71 | 159 | 6.0 | 12.0 | 0.00 | 0.00 | 0.00 | 47 | 1013.3 |
| 20260504021601 | 72 | 175 | 6.0 | 15.0 | 0.00 | 0.00 | 0.00 | 46 | 1013.2 |
| 20260504020601 | 72 | 182 | 6.0 | 13.0 | 0.00 | 0.00 | 0.00 | 45 | 1013.3 |
| 20260504015600 | 73 | 150 | 7.0 | 15.0 | 0.00 | 0.00 | 0.00 | 44 | 1013.3 |
| 20260504014601 | 73 | 161 | 7.0 | 14.0 | 0.00 | 0.00 | 0.00 | 43 | 1013.3 |
| 20260504013602 | 73 | 191 | 7.0 | 20.0 | 0.00 | 0.00 | 0.00 | 42 | 1013.3 |
| 20260504012601 | 74 | 160 | 7.0 | 19.0 | 0.00 | 0.00 | 0.00 | 43 | 1013.0 |
| 20260504011601 | 74 | 173 | 7.0 | 17.0 | 0.00 | 0.00 | 0.00 | 42 | 1013.1 |
| 20260504010601 | 75 | 187 | 7.0 | 13.0 | 0.00 | 0.00 | 0.00 | 41 | 1012.9 |
| 20260504010038 | 75 | 142 | 6.0 | 15.0 | 0.00 | 0.00 | 0.00 | 40 | 1012.8 |
| 20260504004600 | 76 | 155 | 5.0 | 14.0 | 0.00 | 0.00 | 0.00 | 40 | 1012.8 |
| 20260504003600 | 77 | 142 | 5.0 | 13.0 | 0.00 | 0.00 | 0.00 | 39 | 1012.9 |
| 20260504002558 | 78 | 174 | 7.0 | 12.0 | 0.00 | 0.00 | 0.00 | 39 | 1012.9 |
| 20260504001602 | 78 | 184 | 7.0 | 16.0 | 0.00 | 0.00 | 0.00 | 37 | 1013.0 |
| 20260504000557 | 78 | 155 | 9.0 | 17.0 | 0.00 | 0.00 | 0.00 | 37 | 1013.1 |
| 20260504000057 | 79 | 165 | 8.0 | 17.0 | 0.00 | 0.00 | 0.00 | 36 | 1013.1 |
| 20260503234558 | 79 | 178 | 8.0 | 16.0 | 0.00 | 0.00 | 0.00 | 36 | 1013.2 |
| 20260503233559 | 79 | 186 | 9.0 | 16.0 | 0.00 | 0.00 | 0.00 | 34 | 1013.2 |
| 20260503232557 | 80 | 163 | 7.0 | 13.0 | 0.00 | 0.00 | 0.00 | 36 | 1013.3 |
| 20260503231557 | 80 | 169 | 7.0 | 16.0 | 0.00 | 0.00 | 0.00 | 35 | 1013.4 |
| 20260503230559 | 80 | 157 | 9.0 | 16.0 | 0.00 | 0.00 | 0.00 | 36 | 1013.5 |
| 20260503225554 | 79 | 200 | 11.0 | 18.0 | 0.00 | 0.00 | 0.00 | 35 | 1013.7 |
| 20260503224553 | 80 | 189 | 8.0 | 16.0 | 0.00 | 0.00 | 0.00 | 35 | 1013.7 |